Wind_Speed
2 0 3 5 8 13 16 14 8 12 11 11 7 9 10 10 12 14 15 16 15 14 15 17 17 15 11 11 10 6 5 6 6 6 6 6 10 13 13 12 11 10 8 7
3 3 3 7 10 11 15 16 15 19 20 16 9 7 8 11 13 16 15 16 16 14 16 16 15 13 13 11 8 5 6 7 6 6 6 8 12 13 13 12 12 11 10 9
2 2 3 6 16 18 13 13 15 14 16 3 7 10 11 12 14 15 16 17 16 15 16 15 14 14 12 10 6 5 6 6 6 6 8 11 12 13 14 14 13 11 11 10
1 1 3 1 1 3 13 17 15 17 13 8 5 3 4 8 12 14 14 16 14 15 15 14 14 13 10 7 5 4 6 6 6 8 11 12 12 13 13 13 12 11 10 10
2 4 6 12 3 3 4 6 5 11 11 5 3 2 8 9 10 12 13 15 15 14 14 16 14 11 7 4 4 5 6 7 9 11 12 12 12 12 13 13 13 11 11 10
3 3 3 3 3 1 2 5 6 3 4 8 7 4 3 8 10 9 13 13 14 15 15 14 11 6 5 6 6 7 6 8 10 11 13 13 12 13 14 13 13 11 11 10
3 4 6 1 2 2 3 3 6 4 6 9 7 4 3 5 9 12 14 16 18 18 15 11 7 6 6 6 7 6 7 10 11 12 12 12 13 13 14 13 12 10 9 9
3 3 4 5 6 3 4 4 5 4 5 9 5 1 1 7 11 15 18 19 17 17 13 6 5 5 6 7 5 6 9 12 12 10 10 10 13 15 14 13 11 10 9 10
6 1 3 6 5 3 4 8 7 6 5 7 7 6 6 8 11 13 16 16 15 13 12 9 5 4 6 5 6 8 11 12 12 11 10 12 15 15 14 12 11 11 11 12
1 2 6 8 8 9 9 11 11 11 10 7 10 7 8 10 11 14 14 14 10 8 7 7 5 3 4 7 8 9 12 12 11 11 11 15 14 14 13 12 11 10 11 12
4 9 6 2 3 6 10 9 9 7 6 8 7 7 10 11 12 13 13 8 5 6 5 3 1 3 6 8 9 10 11 11 10 11 13 15 14 14 13 13 12 11 13 12
2 6 4 7 10 10 10 10 9 6 3 3 3 9 13 11 15 14 7 4 4 2 1 3 4 7 8 8 8 9 10 9 10 12 15 15 16 14 14 15 15 16 16 17
5 11 9 8 6 11 9 8 8 9 10 11 15 17 17 15 9 6 2 3 3 5 4 5 6 8 8 7 6 8 9 10 11 13 14 15 16 16 15 12 15 15 17 18
9 9 2 12 6 10 12 16 20 22 21 20 20 19 16 9 1 3 5 6 5 5 6 7 8 8 8 7 8 9 9 12 13 14 14 14 16 18 15 14 15 15 15 14
9 7 7 8 11 13 17 18 17 15 15 14 14 9 6 2 5 7 6 6 6 8 9 9 10 10 9 10 11 12 12 14 15 17 17 16 17 18 16 14 15 17 15 15
8 11 12 13 13 14 15 12 11 8 7 7 5 2 3 5 6 5 6 8 8 10 10 11 16 15 12 13 14 15 16 17 16 16 17 18 17 17 18 15 14 15 15 16
7 9 11 12 11 9 9 10 10 8 4 2 4 6 5 4 7 9 9 9 14 18 19 20 22 16 15 15 16 17 18 18 17 17 17 16 16 17 17 16 15 16 16 15
15 14 15 13 10 8 5 4 3 4 6 6 4 3 5 7 9 12 14 14 16 20 23 25 25 22 20 18 16 17 18 19 19 19 21 17 15 16 18 18 17 18 18 16
13 12 10 9 7 6 5 5 6 5 6 6 7 8 10 12 12 13 15 15 17 18 20 16 19 23 20 18 19 15 17 17 19 20 21 22 17 16 17 19 20 20 20 19
8 7 6 7 7 7 6 7 8 7 8 8 10 11 11 15 16 18 18 16 18 21 22 21 20 19 19 18 20 16 14 15 18 20 20 20 19 18 17 18 20 21 22 22
8 8 8 8 8 10 11 11 11 10 9 12 12 12 13 19 20 19 16 19 21 20 18 20 21 21 17 17 16 16 17 18 18 18 18 18 18 19 19 18 19 20 20 21
7 8 9 8 8 9 11 11 11 11 13 13 14 14 15 16 18 19 15 19 22 22 27 26 24 23 24 22 17 18 16 15 17 19 19 19 18 18 18 18 17 17 18 20
8 8 9 10 9 7 6 10 12 10 12 13 14 17 18 19 19 19 20 22 24 26 29 28 28 28 24 23 21 17 12 13 15 15 15 17 19 19 19 19 20 20 20 20
10 9 7 6 5 7 10 13 13 11 12 13 15 16 18 22 22 19 24 29 30 30 31 31 30 25 23 16 11 8 7 9 10 10 12 14 14 15 16 18 20 22 21 20
7 6 7 6 7 9 10 13 13 13 15 16 16 16 17 18 20 28 27 28 29 32 30 31 19 14 7 5 4 3 3 4 6 8 9 11 12 14 15 16 18 20 22 24
7 6 7 8 8 9 11 13 13 14 16 17 17 19 20 21 22 24 26 27 25 23 18 16 14 11 9 8 7 6 6 6 7 8 10 11 12 13 15 17 18 19 20 23
8 8 7 6 8 9 10 11 13 15 16 18 21 21 21 22 22 21 21 20 19 18 16 15 14 13 11 10 10 9 9 8 10 11 11 12 13 14 15 17 18 18 19 20
Wind_Direction
234 164 234 252 230 210 217 234 224 268 254 270 248 231 230 212 198 193 190 186 185 184 176 171 172 176 175 181 177 185 227 266 277 258 258 281 301 308 307 307 306 306 304 304
231 216 265 266 248 238 234 247 252 262 266 276 256 248 210 203 199 200 198 192 188 187 181 180 179 176 178 175 181 208 250 271 259 242 263 290 299 302 301 302 301 298 291 294
236 353 277 277 242 227 226 227 237 246 258 212 204 223 217 210 205 205 199 194 191 189 185 180 183 174 172 179 190 227 267 260 236 247 280 292 297 301 300 299 293 284 285 281
120 222 222 316 205 284 248 255 249 259 266 271 274 213 250 226 210 208 201 196 192 186 181 179 167 165 168 181 219 249 252 237 242 266 283 288 292 301 304 299 287 280 275 267
177 218 314 280 191 221 210 290 336 270 274 244 212 248 235 219 216 209 201 194 191 181 173 163 160 167 175 204 228 229 237 251 265 280 284 285 287 300 302 301 291 275 267 259
149 225 253 53 69 200 232 281 9 298 226 194 184 243 341 184 194 193 186 179 166 157 154 155 158 163 187 221 230 244 247 270 280 285 284 280 284 297 301 297 291 272 269 256
177 241 278 292 239 159 243 20 347 276 205 190 202 268 57 158 172 179 169 162 149 144 147 149 137 186 218 229 244 246 265 276 285 291 286 279 283 290 295 294 288 275 255 249
142 204 271 157 144 234 12 334 326 292 250 226 266 321 159 160 160 158 154 145 143 136 125 113 204 214 248 247 248 262 274 281 286 290 283 278 286 292 293 288 279 268 256 266
217 228 105 197 286 329 318 301 307 302 286 250 257 223 179 165 157 153 147 140 140 136 140 175 184 218 240 265 264 274 281 287 284 279 281 288 292 292 289 283 275 270 269 279
249 167 249 256 274 285 288 284 293 284 283 269 256 227 180 157 146 143 134 129 125 144 194 172 183 221 257 261 268 277 285 287 280 277 289 295 295 287 278 277 274 270 275 281
248 285 301 261 322 334 318 315 300 299 305 286 266 187 164 146 138 128 109 106 169 195 202 224 225 250 260 272 279 282 285 287 284 287 288 293 294 288 274 270 265 271 267 272
275 357 316 313 341 338 321 328 332 317 349 24 139 150 141 127 121 110 118 179 203 219 245 269 274 277 281 289 285 282 285 291 294 293 290 291 292 292 279 264 263 265 261 260
300 321 313 331 28 7 15 22 48 66 74 85 86 105 103 92 78 108 176 217 236 240 252 262 275 278 287 279 277 274 287 295 289 283 279 285 287 280 282 280 267 263 263 262
2 336 132 32 28 44 66 76 78 78 78 81 82 72 76 84 38 255 239 240 243 253 258 263 266 274 274 273 276 277 283 286 283 284 278 283 290 280 267 276 277 269 259 258
21 42 71 78 75 71 76 83 80 77 77 66 71 79 91 133 254 256 266 256 260 263 266 266 265 270 275 269 270 279 283 286 287 279 270 275 281 282 261 264 270 272 269 264
69 72 74 81 85 92 94 87 88 88 100 130 129 196 284 263 263 273 275 266 259 272 278 267 264 275 274 273 277 279 278 276 276 282 281 280 279 276 263 257 261 266 267 268
113 89 98 97 96 93 102 120 133 155 154 212 287 312 320 307 291 291 292 281 277 279 282 278 274 274 272 275 273 274 277 280 280 279 277 278 278 278 266 255 258 266 267 263
100 112 119 124 132 135 131 89 34 354 344 342 340 331 312 301 295 302 307 304 292 287 285 284 285 278 273 268 270 273 277 277 275 272 273 270 273 276 271 258 257 262 265 262
98 101 97 84 66 54 32 10 3 357 355 346 331 322 315 308 305 303 306 299 289 285 297 301 298 298 284 265 266 269 272 275 280 281 279 277 273 271 273 264 257 254 258 258
99 86 72 65 52 42 37 30 21 20 13 353 337 331 320 320 321 315 312 289 284 287 300 301 300 289 278 270 263 271 270 275 281 282 274 271 266 270 272 276 267 262 259 254
81 76 66 60 64 58 50 44 43 32 17 12 360 342 329 321 320 320 307 299 305 309 305 303 302 291 281 267 262 263 266 276 283 283 284 285 290 281 274 272 269 271 270 266
84 75 62 58 66 70 49 36 22 15 7 358 353 349 338 328 326 318 309 297 311 316 317 307 302 297 288 274 262 271 272 278 287 287 284 283 282 283 283 280 278 279 280 279
85 79 69 57 51 43 33 21 15 12 6 356 347 340 332 323 321 322 315 318 312 311 312 306 304 304 299 290 267 270 276 291 297 302 308 310 308 307 306 304 295 283 279 282
85 72 65 53 46 35 20 7 359 355 349 344 342 338 333 328 322 323 318 317 317 315 308 305 303 300 296 278 263 273 294 304 307 311 315 314 313 312 310 310 308 299 306 289
97 88 61 45 35 22 7 356 347 346 343 340 337 335 331 327 319 319 321 321 322 320 320 319 299 294 304 297 308 329 346 335 336 344 341 338 335 332 330 328 324 314 306 300
77 65 57 46 32 12 359 351 345 340 338 334 332 333 331 330 328 327 327 329 331 337 342 347 356 360 3 7 13 16 15 4 360 355 352 345 341 339 337 337 336 336 330 327
67 48 36 29 16 1 353 347 343 337 336 334 328 334 334 335 334 339 345 347 351 353 356 1 6 12 12 15 15 11 11 5 357 356 349 344 341 339 337 337 336 338 341 347
Height
786 789 788 783 783 785 786 781 792 773 776 764 765 768 770 775 780 788 796 801 805 809 815 820 824 827 831 836 838 840 842 842 842 843 843 842 842 841 840 838 835 833 832 830
793 795 794 793 783 781 779 776 779 772 771 758 763 770 772 777 781 786 791 796 802 806 811 815 820 824 829 832 835 837 839 839 839 839 839 839 839 837 836 834 832 831 829 828
792 802 799 805 780 774 771 770 771 775 762 760 769 772 771 773 778 781 786 792 798 803 808 813 819 823 827 831 833 835 835 836 836 837 837 837 836 834 831 829 827 827 826 825
801 816 808 765 771 771 767 763 760 763 759 765 764 768 771 771 773 779 785 790 796 802 807 813 818 822 826 829 831 832 833 834 834 834 833 832 831 830 827 825 823 822 823 822
806 795 779 763 772 777 777 765 758 759 758 766 775 775 771 772 774 778 784 790 796 802 808 814 817 822 824 827 829 831 831 831 832 831 830 828 827 826 824 822 819 819 818 817
811 799 795 771 776 776 775 774 765 764 764 772 775 774 760 770 777 780 785 791 798 804 809 813 818 821 822 826 828 828 829 830 830 828 826 824 823 822 821 818 816 816 814 814
802 799 782 769 774 776 782 777 767 768 766 770 772 765 770 771 777 781 787 793 799 804 809 814 817 821 823 823 825 826 826 827 826 823 822 821 820 818 816 813 813 811 812 812
807 802 795 774 778 780 771 767 770 769 769 771 769 774 775 775 779 783 789 796 801 805 809 815 821 821 821 822 822 822 823 822 820 819 818 816 816 814 812 810 808 808 809 809
779 771 769 772 769 770 772 772 770 771 769 773 773 775 778 780 784 790 794 798 800 805 807 813 817 819 818 818 820 820 819 817 815 815 815 813 812 809 807 806 805 804 804 804
781 765 768 769 770 769 769 770 769 769 769 769 769 772 778 783 788 793 799 802 808 808 813 812 813 815 816 818 817 815 814 813 811 811 809 810 808 805 803 802 801 801 801 800
775 766 766 766 770 772 771 769 769 769 771 770 769 773 781 787 794 798 803 807 810 811 812 814 812 812 814 815 814 812 811 809 807 806 805 804 802 802 800 798 798 797 797 797
772 777 776 771 772 774 773 771 771 770 774 774 774 780 786 794 797 802 806 809 811 812 812 813 813 814 813 812 811 810 808 805 803 803 803 801 797 795 795 793 793 792 792 792
779 780 778 778 778 780 778 778 778 778 781 784 790 795 800 803 807 808 810 812 812 812 812 812 812 812 811 809 808 808 804 802 801 800 799 797 794 791 789 788 786 786 786 786
786 781 776 784 786 788 788 790 791 793 797 801 803 805 807 810 813 812 811 811 811 812 811 810 809 809 808 806 806 804 801 799 798 796 794 792 790 787 785 783 782 780 780 779
790 788 789 792 793 795 798 801 802 804 807 809 811 812 813 813 813 813 812 811 810 809 808 808 807 805 804 803 801 799 797 794 793 792 789 787 785 782 779 778 777 775 774 774
796 795 798 799 803 805 806 808 809 812 812 812 811 812 811 810 810 810 809 810 809 807 805 804 802 801 800 798 796 794 792 789 787 786 783 781 778 776 773 772 771 770 769 768
798 804 806 807 809 811 811 810 810 809 809 810 810 810 810 811 810 809 808 807 805 803 801 799 796 796 794 792 790 788 785 783 781 780 777 775 772 769 767 765 764 763 762 762
802 805 807 808 810 811 812 813 813 813 813 813 811 811 811 810 809 806 805 803 800 797 795 793 790 788 786 785 784 782 780 777 775 773 771 768 766 763 761 759 758 757 756 756
809 810 811 812 813 814 814 815 815 814 813 812 812 811 810 808 807 805 802 800 798 793 789 787 784 782 779 778 777 775 773 771 769 766 764 760 758 757 754 752 751 750 749 748
813 814 814 815 816 817 817 817 816 815 815 813 812 810 809 806 804 801 798 795 793 789 785 782 779 775 772 771 769 767 766 765 763 759 756 754 751 749 747 746 744 742 741 740
815 816 817 818 819 819 818 818 817 817 816 814 813 811 808 804 801 798 795 789 786 785 781 777 774 770 767 765 763 761 759 757 755 753 750 748 745 743 740 739 737 735 734 732
817 819 820 820 820 821 821 820 820 819 816 815 813 810 808 803 799 795 794 790 784 781 778 773 769 765 762 758 756 755 753 752 750 747 744 742 739 737 734 732 731 729 728 726
819 820 821 822 823 824 823 822 820 819 817 816 813 810 807 804 800 794 787 785 782 777 773 767 762 758 754 752 750 748 748 747 746 743 741 738 736 733 730 727 725 723 721 719
821 823 825 825 825 825 823 822 821 819 817 815 813 810 806 800 795 794 790 783 777 772 766 761 755 752 748 746 745 744 744 743 743 741 739 737 734 731 728 724 721 718 715 713
825 826 826 826 824 824 824 822 820 817 816 813 811 808 806 802 798 789 785 780 774 768 761 754 748 746 746 744 743 742 742 742 741 739 737 736 733 730 727 724 720 716 712 708
826 826 826 826 827 826 825 823 820 818 816 813 810 807 803 799 794 790 784 779 773 767 762 757 753 750 748 746 745 743 743 742 740 738 737 735 732 730 726 722 718 714 710 705
828 828 827 827 827 827 826 824 821 819 816 813 809 805 801 797 793 788 784 779 775 770 766 762 758 754 752 749 747 746 744 743 741 739 737 734 732 729 725 722 718 714 710 705